Regional Weather Roundup
Issued by NWS

Home | Current Version | Previous Version | Graphics & Text | Print | Product List | Glossary On
Versions: 1 2 3 4 5 6 7 8 9 10 11 12 13 14 15 16 17 18 19 20 21 22 23 24 25 26 27 28 29 30 31 32 33 34 35 36 37 38 39 40 41 42 43 44 45 46 47 48 49 50
000
ASUS43 KFSD 250210
RWRSD

WEATHER ROUNDUP FOR SOUTH DAKOTA
NATIONAL WEATHER SERVICE SIOUX FALLS SD
800 PM CST MON NOV 24 2014

NOTE: "FAIR" INDICATES FEW OR NO CLOUDS BELOW 12,000 FEET WITH NO
SIGNIFICANT WEATHER AND/OR OBSTRUCTIONS TO VISIBILITY.


SDZ001>005-009-010-012>017-250300-
NORTHWEST AND NORTH CENTRAL SOUTH DAKOTA

CITY           SKY/WX    TMP DP  RH WIND       PRES   REMARKS
BUFFALO          N/A     24  21  88 W15       29.94F WCI  11
FAITH            N/A     25  18  74 W15       30.01F WCI  13
MOBRIDGE       CLEAR     17  11  77 NW6       30.00R WCI   9
$$

SDZ012>016-024>037-041>051-057-063-072>074-250300-
SOUTHWEST AND SOUTH CENTRAL SOUTH DAKOTA

CITY           SKY/WX    TMP DP  RH WIND       PRES   REMARKS
RAPID CTY ARPT PTCLDY    23  19  85 NW6       30.05F WCI  16
PIERRE         PTCLDY    24  13  62 W5        30.04R WCI  18
CUSTER         CLEAR     26  15  63 W10G20    30.01S WCI  16
ELLSWORTH AFB  CLEAR     24  21  86 NW9       30.04F WCI  15
PHILIP         PTCLDY   N/A N/A N/A W3        30.07R
PINE RIDGE     MOCLDY    21  20  96 SW6       30.10R WCI  13
SPEARFISH      CLOUDY    32  23  69 W13G20    30.07R HAZE    WCI  22
WINNER         FAIR      20   9  62 W7        30.05R WCI  11
$$

SDZ004>011-016>023-039-040-250300-
NORTHEAST SOUTH DAKOTA

CITY           SKY/WX    TMP DP  RH WIND       PRES   REMARKS
ABERDEEN       CLEAR     18   5  57 NW10      30.03R WCI   6
WATERTOWN      CLEAR     16   6  65 NW16      29.95R WCI   1
SISSETON         N/A     16   6  65 N18       29.98R WCI   0
$$

SDZ017-020-022-023-036>040-048>070-250300-
SOUTHEAST SOUTH DAKOTA

CITY           SKY/WX    TMP DP  RH WIND       PRES   REMARKS
SIOUX FALLS    CLEAR     21  12  68 NW14      29.98R WCI   8
HURON          CLEAR     14   7  73 W10       30.04R WCI   1
CHAMBERLAIN    CLEAR     23   8  52 NW10      30.05R WCI  12
MITCHELL       CLEAR     20   9  62 NW13      30.05R WCI   7
YANKTON        CLEAR     21   7  53 NW10      30.04R WCI  10
$$

ABBREVIATIONS USED IN REMARKS
   TC - TEMPERATURE IN CELSIUS
  WCI - WIND CHILL INDEX
   HX - HEAT INDEX
  VSB - VISIBILITY




USA.gov is the U.S. government's official web portal to all federal, state and local government web resources and services.